| time (UTC) | temp F | wind direction | speed knots | gust knots | rain 1hr in | rain 24hr in | rain mn in | humidity % | barometer mb |
| 20260906161444 | 75 | 139 | 0.0 | 4.3 | 0.00 | 0.00 | 0.00 | 75 | 1021.5 |
| 20260906160943 | 73 | 95 | 3.5 | 7.0 | 0.00 | 0.00 | 0.00 | 77 | 1021.5 |
| 20260906160436 | 73 | 137 | 5.2 | 8.7 | 0.00 | 0.00 | 0.00 | 78 | 1021.8 |
| 20260906155934 | 73 | 154 | 7.0 | 7.8 | 0.00 | 0.00 | 0.00 | 79 | 1021.8 |
| 20260906155428 | 73 | 101 | 2.6 | 4.3 | 0.00 | 0.00 | 0.00 | 80 | 1021.7 |
| 20260906154924 | 72 | 135 | 4.3 | 6.1 | 0.00 | 0.00 | 0.00 | 81 | 1021.6 |
| 20260906154419 | 73 | 109 | 5.2 | 6.1 | 0.00 | 0.00 | 0.00 | 83 | 1021.8 |
| 20260906153918 | 73 | 127 | 2.6 | 4.3 | 0.00 | 0.00 | 0.00 | 81 | 1021.8 |
| 20260906153416 | 71 | 124 | 1.7 | 3.5 | 0.00 | 0.00 | 0.00 | 84 | 1021.6 |
| 20260906152912 | 71 | 138 | 7.0 | 9.6 | 0.00 | 0.00 | 0.00 | 82 | 1021.7 |
| 20260906152407 | 72 | 113 | 2.6 | 3.5 | 0.00 | 0.00 | 0.00 | 82 | 1021.8 |
| 20260906151906 | 71 | 137 | 3.5 | 6.1 | 0.00 | 0.00 | 0.00 | 84 | 1021.9 |
| 20260906151402 | 72 | 134 | 7.8 | 8.7 | 0.00 | 0.00 | 0.00 | 81 | 1021.8 |
| 20260906150857 | 72 | 121 | 1.7 | 4.3 | 0.00 | 0.00 | 0.00 | 83 | 1021.8 |
| 20260906150352 | 71 | 139 | 4.3 | 7.8 | 0.00 | 0.00 | 0.00 | 85 | 1021.7 |
| 20260906145852 | 72 | 71 | 0.0 | 2.6 | 0.00 | 0.00 | 0.00 | 85 | 1021.6 |
| 20260906145350 | 71 | 139 | 4.3 | 7.0 | 0.00 | 0.00 | 0.00 | 83 | 1021.5 |
| 20260906144845 | 72 | 74 | 7.0 | 7.0 | 0.00 | 0.00 | 0.00 | 84 | 1021.6 |
| 20260906144341 | 70 | 134 | 3.5 | 7.0 | 0.00 | 0.00 | 0.00 | 85 | 1021.5 |
| 20260906143841 | 71 | 124 | 2.6 | 5.2 | 0.00 | 0.00 | 0.00 | 84 | 1021.4 |
| 20260906143337 | 71 | 133 | 2.6 | 5.2 | 0.00 | 0.00 | 0.00 | 86 | 1021.4 |
| 20260906142832 | 70 | 138 | 7.0 | 7.8 | 0.00 | 0.00 | 0.00 | 86 | 1021.5 |
| 20260906142326 | 70 | 146 | 3.5 | 6.1 | 0.00 | 0.00 | 0.00 | 87 | 1021.5 |
| 20260906141821 | 70 | 113 | 5.2 | 5.2 | 0.00 | 0.00 | 0.00 | 86 | 1021.6 |
| 20260906141316 | 70 | 129 | 2.6 | 7.8 | 0.00 | 0.00 | 0.00 | 87 | 1021.6 |
| 20260906140814 | 70 | 134 | 3.5 | 7.8 | 0.00 | 0.00 | 0.00 | 88 | 1021.8 |
| 20260906140309 | 70 | 132 | 1.7 | 6.1 | 0.00 | 0.00 | 0.00 | 88 | 1021.6 |
| 20260906135807 | 69 | 156 | 4.3 | 5.2 | 0.00 | 0.00 | 0.00 | 89 | 1021.8 |
| 20260906135305 | 69 | 146 | 5.2 | 6.1 | 0.00 | 0.00 | 0.00 | 90 | 1021.8 |
| 20260906134757 | 69 | 132 | 3.5 | 4.3 | 0.00 | 0.00 | 0.00 | 91 | 1021.9 |
| 20260906134252 | 69 | 144 | 2.6 | 5.2 | 0.00 | 0.00 | 0.00 | 91 | 1021.7 |
| 20260906133748 | 69 | 144 | 3.5 | 5.2 | 0.00 | 0.00 | 0.00 | 91 | 1021.6 |
| 20260906133244 | 68 | 137 | 5.2 | 5.2 | 0.00 | 0.00 | 0.00 | 92 | 1021.7 |
| 20260906132739 | 68 | 147 | 3.5 | 6.1 | 0.00 | 0.00 | 0.00 | 93 | 1021.6 |
| 20260906132234 | 67 | 139 | 4.3 | 4.3 | 0.00 | 0.00 | 0.00 | 94 | 1021.5 |
| 20260906131730 | 67 | 131 | 2.6 | 4.3 | 0.00 | 0.00 | 0.00 | 95 | 1021.5 |
| 20260906131225 | 66 | 97 | 2.6 | 4.3 | 0.00 | 0.00 | 0.00 | 95 | 1021.3 |
| 20260906130720 | 66 | 146 | 2.6 | 5.2 | 0.00 | 0.00 | 0.00 | 95 | 1021.2 |
| 20260906130215 | 65 | 127 | 3.5 | 5.2 | 0.00 | 0.00 | 0.00 | 96 | 1021.3 |
| 20260906125714 | 65 | 148 | 5.2 | 5.2 | 0.00 | 0.00 | 0.00 | 96 | 1021.4 |
| 20260906125212 | 64 | 117 | 2.6 | 3.5 | 0.00 | 0.00 | 0.00 | 96 | 1021.6 |
| 20260906124707 | 64 | 123 | 1.7 | 3.5 | 0.00 | 0.00 | 0.00 | 96 | 1021.7 |
| 20260906124203 | 64 | 126 | 0.0 | 1.7 | 0.00 | 0.00 | 0.00 | 97 | 1021.5 |
| 20260906123701 | 63 | 106 | 0.9 | 1.7 | 0.00 | 0.00 | 0.00 | 97 | 1021.3 |
| 20260906123157 | 63 | 90 | 1.7 | 2.6 | 0.00 | 0.00 | 0.00 | 97 | 1021.2 |
| 20260906122656 | 63 | 110 | 1.7 | 3.5 | 0.00 | 0.00 | 0.00 | 97 | 1021.1 |
| 20260906122152 | 62 | 102 | 2.6 | 4.3 | 0.00 | 0.00 | 0.00 | 97 | 1021.2 |
| 20260906121648 | 62 | 101 | 3.5 | 4.3 | 0.00 | 0.00 | 0.00 | 97 | 1021.0 |
| 20260906121144 | 62 | 109 | 2.6 | 2.6 | 0.00 | 0.00 | 0.00 | 97 | 1021.2 |
| 20260906120640 | 62 | 90 | 4.3 | 6.1 | 0.00 | 0.00 | 0.00 | 97 | 1020.8 |
| 20260906120137 | 62 | 71 | 2.6 | 4.3 | 0.00 | 0.00 | 0.00 | 97 | 1021.0 |
| 20260906115637 | 62 | 83 | 3.5 | 5.2 | 0.00 | 0.00 | 0.00 | 97 | 1020.9 |
| 20260906115132 | 62 | 104 | 4.3 | 5.2 | 0.00 | 0.00 | 0.00 | 97 | 1020.8 |
| 20260906114626 | 62 | 101 | 2.6 | 4.3 | 0.00 | 0.00 | 0.00 | 97 | 1020.6 |
| 20260906114121 | 61 | 74 | 3.5 | 5.2 | 0.00 | 0.00 | 0.00 | 97 | 1020.6 |
| 20260906113620 | 61 | 74 | 4.3 | 6.1 | 0.00 | 0.00 | 0.00 | 97 | 1020.4 |
| 20260906113115 | 61 | 90 | 4.3 | 4.3 | 0.00 | 0.00 | 0.00 | 97 | 1020.3 |
| 20260906112614 | 61 | 90 | 3.5 | 6.1 | 0.00 | 0.00 | 0.00 | 97 | 1020.0 |
| 20260906112111 | 61 | 61 | 2.6 | 5.2 | 0.00 | 0.00 | 0.00 | 97 | 1020.1 |
| 20260906111610 | 60 | 86 | 3.5 | 4.3 | 0.00 | 0.00 | 0.00 | 97 | 1020.2 |
| 20260906111106 | 60 | 53 | 0.0 | 3.5 | 0.00 | 0.00 | 0.00 | 97 | 1020.1 |
| 20260906110606 | 60 | 68 | 3.5 | 4.3 | 0.00 | 0.00 | 0.00 | 97 | 1020.2 |
| 20260906110100 | 60 | 82 | 1.7 | 4.3 | 0.00 | 0.00 | 0.00 | 96 | 1019.9 |
| 20260906105554 | 60 | 69 | 0.0 | 2.6 | 0.00 | 0.00 | 0.00 | 96 | 1020.1 |
| 20260906105051 | 59 | 66 | 1.7 | 1.7 | 0.00 | 0.00 | 0.00 | 96 | 1020.0 |
| 20260906104549 | 59 | 40 | 1.7 | 2.6 | 0.00 | 0.00 | 0.00 | 96 | 1020.0 |
| 20260906104044 | 60 | 57 | 0.0 | 1.7 | 0.00 | 0.00 | 0.00 | 96 | 1020.2 |
| 20260906103542 | 59 | 72 | 1.7 | 2.6 | 0.00 | 0.00 | 0.00 | 96 | 1020.1 |
| 20260906103038 | 60 | 49 | 1.7 | 2.6 | 0.00 | 0.00 | 0.00 | 96 | 1019.9 |
| 20260906102537 | 60 | 40 | 0.0 | 1.7 | 0.00 | 0.00 | 0.00 | 96 | 1020.2 |
| 20260906102033 | 60 | 40 | 1.7 | 1.7 | 0.00 | 0.00 | 0.00 | 96 | 1020.0 |
| 20260906101527 | 60 | 60 | 0.0 | 2.6 | 0.00 | 0.00 | 0.00 | 96 | 1020.0 |
| 20260906101022 | 60 | 120 | 0.9 | 1.7 | 0.00 | 0.00 | 0.00 | 96 | 1020.2 |
| 20260906100518 | 60 | 12 | 0.0 | 1.7 | 0.00 | 0.00 | 0.00 | 96 | 1020.1 |
| 20260906100012 | 60 | 40 | 1.7 | 1.7 | 0.00 | 0.00 | 0.00 | 96 | 1020.1 |
| 20260906095507 | 60 | 82 | 1.7 | 2.6 | 0.00 | 0.00 | 0.00 | 96 | 1020.0 |
| 20260906095003 | 60 | 74 | 0.9 | 1.7 | 0.00 | 0.00 | 0.00 | 96 | 1020.1 |
| 20260906094501 | 60 | 99 | 0.0 | 1.7 | 0.00 | 0.00 | 0.00 | 96 | 1020.0 |
| 20260906093957 | 60 | 23 | 0.0 | 1.7 | 0.00 | 0.00 | 0.00 | 96 | 1019.7 |
| 20260906093453 | 60 | 90 | 0.9 | 1.7 | 0.00 | 0.00 | 0.00 | 96 | 1019.9 |
| 20260906092948 | 61 | 29 | 0.0 | 2.6 | 0.00 | 0.00 | 0.00 | 96 | 1020.0 |
| 20260906092448 | 61 | 81 | 0.0 | 0.9 | 0.00 | 0.00 | 0.00 | 96 | 1020.2 |
| 20260906091942 | 60 | 54 | 0.0 | 2.6 | 0.00 | 0.00 | 0.00 | 96 | 1019.9 |
| 20260906091438 | 60 | 26 | 0.0 | 2.6 | 0.00 | 0.00 | 0.00 | 96 | 1019.8 |
| 20260906090934 | 60 | 356 | 0.0 | 2.6 | 0.00 | 0.00 | 0.00 | 96 | 1019.8 |
| 20260906090429 | 60 | 26 | 0.0 | 1.7 | 0.00 | 0.00 | 0.00 | 96 | 1019.8 |
| 20260906085924 | 60 | 24 | 0.0 | 2.6 | 0.00 | 0.00 | 0.00 | 96 | 1019.6 |
| 20260906085423 | 60 | 15 | 0.0 | 1.7 | 0.00 | 0.00 | 0.00 | 96 | 1019.7 |
| 20260906084923 | 60 | 90 | 1.7 | 1.7 | 0.00 | 0.00 | 0.00 | 96 | 1019.7 |
| 20260906084418 | 60 | 20 | 0.0 | 2.6 | 0.00 | 0.00 | 0.00 | 96 | 1019.9 |
| 20260906083917 | 60 | 15 | 0.0 | 1.7 | 0.00 | 0.00 | 0.00 | 96 | 1019.7 |
| 20260906083413 | 60 | 56 | 1.7 | 1.7 | 0.00 | 0.00 | 0.00 | 96 | 1019.7 |
| 20260906082912 | 60 | 334 | 0.0 | 2.6 | 0.00 | 0.00 | 0.00 | 96 | 1019.7 |
| 20260906082407 | 60 | 349 | 1.7 | 2.6 | 0.00 | 0.00 | 0.00 | 95 | 1019.7 |
| 20260906081903 | 60 | 11 | 1.7 | 2.6 | 0.00 | 0.00 | 0.00 | 96 | 1020.0 |
| 20260906081358 | 60 | 29 | 0.0 | 1.7 | 0.00 | 0.00 | 0.00 | 95 | 1019.9 |
| 20260906080854 | 60 | 90 | 0.0 | 2.6 | 0.00 | 0.00 | 0.00 | 95 | 1019.6 |
| 20260906080351 | 61 | 90 | 0.0 | 1.7 | 0.00 | 0.00 | 0.00 | 95 | 1019.6 |
| 20260906075849 | 61 | 29 | 0.0 | 2.6 | 0.00 | 0.00 | 0.00 | 95 | 1019.6 |
| 20260906075344 | 61 | 23 | 0.0 | 2.6 | 0.00 | 0.00 | 0.00 | 95 | 1019.8 |
| 20260906074840 | 61 | 32 | 1.7 | 2.6 | 0.00 | 0.00 | 0.00 | 95 | 1019.9 |
| 20260906074340 | 61 | 75 | 0.0 | 2.6 | 0.00 | 0.00 | 0.00 | 95 | 1019.7 |
| 20260906073838 | 61 | 57 | 1.7 | 3.5 | 0.00 | 0.00 | 0.00 | 95 | 1019.7 |
| 20260906073334 | 61 | 61 | 1.7 | 4.3 | 0.00 | 0.00 | 0.00 | 95 | 1019.8 |
| 20260906072830 | 61 | 342 | 0.9 | 2.6 | 0.00 | 0.00 | 0.00 | 95 | 1019.9 |
| 20260906072326 | 61 | 348 | 0.0 | 3.5 | 0.00 | 0.00 | 0.00 | 96 | 1019.8 |
| 20260906071822 | 61 | 347 | 2.6 | 2.6 | 0.00 | 0.00 | 0.00 | 96 | 1019.8 |
| 20260906071322 | 61 | 345 | 0.0 | 4.3 | 0.00 | 0.00 | 0.00 | 96 | 1019.7 |
| 20260906070818 | 61 | 354 | 0.9 | 2.6 | 0.00 | 0.00 | 0.00 | 96 | 1019.5 |
| 20260906070313 | 61 | 351 | 3.5 | 3.5 | 0.00 | 0.00 | 0.00 | 96 | 1019.6 |
| 20260906065808 | 61 | 353 | 1.7 | 2.6 | 0.00 | 0.00 | 0.00 | 96 | 1019.7 |
| 20260906065305 | 61 | 348 | 1.7 | 2.6 | 0.00 | 0.00 | 0.00 | 96 | 1019.5 |
| 20260906064759 | 61 | 14 | 0.9 | 2.6 | 0.00 | 0.00 | 0.00 | 96 | 1019.6 |
| 20260906064254 | 60 | 0 | 1.7 | 2.6 | 0.00 | 0.00 | 0.00 | 96 | 1019.5 |
| 20260906063749 | 61 | 0 | 0.9 | 2.6 | 0.00 | 0.00 | 0.00 | 95 | 1019.4 |
| 20260906063245 | 60 | 5 | 1.7 | 1.7 | 0.00 | 0.00 | 0.00 | 95 | 1019.6 |
| 20260906062740 | 60 | 4 | 1.7 | 2.6 | 0.00 | 0.00 | 0.00 | 95 | 1019.5 |
| 20260906062239 | 60 | 356 | 1.7 | 1.7 | 0.00 | 0.00 | 0.00 | 95 | 1019.4 |
| 20260906061735 | 60 | 23 | 0.0 | 1.7 | 0.00 | 0.00 | 0.00 | 95 | 1019.5 |
| 20260906061231 | 60 | 29 | 0.0 | 0.9 | 0.00 | 0.00 | 0.00 | 95 | 1019.6 |
| 20260906060726 | 60 | 90 | 0.0 | 0.0 | 0.00 | 0.00 | 0.00 | 95 | 1019.5 |
| 20260906060224 | 60 | 18 | 0.0 | 1.7 | 0.00 | 0.00 | 0.00 | 95 | 1019.6 |
| 20260906055719 | 60 | 0 | 0.9 | 1.7 | 0.00 | 0.00 | 0.00 | 95 | 1019.5 |
| 20260906055214 | 60 | 8 | 0.0 | 0.9 | 0.00 | 0.00 | 0.00 | 95 | 1019.6 |
| 20260906054709 | 60 | 0 | 0.9 | 1.7 | 0.00 | 0.00 | 0.00 | 95 | 1019.5 |
| 20260906054204 | 60 | 23 | 0.0 | 0.9 | 0.00 | 0.00 | 0.00 | 94 | 1019.4 |
| 20260906053701 | 60 | 350 | 1.7 | 1.7 | 0.00 | 0.00 | 0.00 | 95 | 1019.2 |
| 20260906053156 | 61 | 352 | 0.0 | 0.9 | 0.00 | 0.00 | 0.00 | 95 | 1019.5 |
| 20260906052651 | 60 | 180 | 0.0 | 0.0 | 0.00 | 0.00 | 0.00 | 95 | 1019.2 |
| 20260906052148 | 60 | 180 | 0.0 | 0.0 | 0.00 | 0.00 | 0.00 | 95 | 1019.4 |
| 20260906051644 | 60 | 180 | 0.0 | 0.0 | 0.00 | 0.00 | 0.00 | 95 | 1018.9 |
| 20260906051143 | 60 | 180 | 0.0 | 0.9 | 0.00 | 0.00 | 0.00 | 94 | 1018.9 |
| 20260906050639 | 59 | 106 | 0.0 | 0.0 | 0.00 | 0.00 | 0.00 | 94 | 1018.8 |
| 20260906050134 | 60 | 106 | 0.0 | 0.0 | 0.00 | 0.00 | 0.00 | 93 | 1019.0 |
| 20260906045632 | 60 | 94 | 1.7 | 1.7 | 0.00 | 0.01 | 0.01 | 93 | 1018.9 |
| 20260906045127 | 61 | 94 | 2.6 | 2.6 | 0.00 | 0.01 | 0.01 | 94 | 1018.9 |
| 20260906044624 | 61 | 84 | 1.7 | 2.6 | 0.00 | 0.01 | 0.01 | 94 | 1018.9 |
| 20260906044119 | 61 | 99 | 0.0 | 1.7 | 0.00 | 0.01 | 0.01 | 94 | 1018.8 |
| 20260906043615 | 61 | 90 | 1.7 | 1.7 | 0.00 | 0.01 | 0.01 | 94 | 1019.0 |
| 20260906043110 | 61 | 157 | 0.0 | 0.0 | 0.00 | 0.01 | 0.01 | 94 | 1018.9 |
| 20260906042609 | 61 | 345 | 0.0 | 0.0 | 0.00 | 0.01 | 0.01 | 93 | 1018.8 |
| 20260906042104 | 62 | 345 | 0.0 | 0.0 | 0.00 | 0.01 | 0.01 | 93 | 1019.0 |
| 20260906041600 | 62 | 345 | 0.0 | 0.9 | 0.00 | 0.01 | 0.01 | 91 | 1018.8 |
| 20260906041054 | 62 | 114 | 0.0 | 0.0 | 0.00 | 0.01 | 0.01 | 91 | 1018.8 |
| 20260906040550 | 63 | 69 | 0.9 | 2.6 | 0.00 | 0.01 | 0.01 | 91 | 1019.0 |
| 20260906040045 | 63 | 90 | 0.0 | 2.6 | 0.00 | 0.01 | 0.01 | 92 | 1018.6 |
| 20260906035541 | 62 | 83 | 0.0 | 1.7 | 0.00 | 0.01 | 0.01 | 92 | 1018.6 |
| 20260906035037 | 63 | 90 | 0.9 | 2.6 | 0.00 | 0.01 | 0.01 | 92 | 1018.7 |
| 20260906034536 | 62 | 77 | 1.7 | 2.6 | 0.00 | 0.01 | 0.01 | 93 | 1018.5 |
| 20260906034031 | 62 | 81 | 0.0 | 0.0 | 0.00 | 0.01 | 0.01 | 92 | 1018.8 |
| 20260906033526 | 63 | 83 | 0.9 | 1.7 | 0.00 | 0.01 | 0.01 | 93 | 1018.7 |
| 20260906033021 | 61 | 90 | 0.0 | 1.7 | 0.00 | 0.01 | 0.01 | 94 | 1018.5 |
| 20260906032513 | 62 | 114 | 0.0 | 0.0 | 0.00 | 0.01 | 0.01 | 93 | 1018.7 |
| 20260906032012 | 62 | 114 | 0.0 | 0.0 | 0.00 | 0.01 | 0.01 | 93 | 1018.6 |
| 20260906031508 | 62 | 96 | 0.0 | 1.7 | 0.00 | 0.01 | 0.01 | 93 | 1018.6 |
| 20260906030957 | 62 | 111 | 0.9 | 1.7 | 0.00 | 0.01 | 0.01 | 93 | 1018.4 |
| 20260906030452 | 62 | 90 | 0.0 | 0.9 | 0.00 | 0.01 | 0.01 | 92 | 1018.6 |
| 20260906025952 | 63 | 99 | 0.0 | 0.0 | 0.00 | 0.01 | 0.01 | 91 | 1018.7 |
| 20260906025446 | 63 | 99 | 0.0 | 0.0 | 0.00 | 0.01 | 0.01 | 89 | 1018.6 |
| 20260906024944 | 64 | 90 | 0.0 | 0.0 | 0.00 | 0.01 | 0.01 | 87 | 1018.6 |
| 20260906024444 | 65 | 90 | 2.6 | 3.5 | 0.00 | 0.01 | 0.01 | 86 | 1018.4 |
| 20260906023939 | 66 | 90 | 3.5 | 3.5 | 0.00 | 0.01 | 0.01 | 85 | 1018.8 |
| 20260906023435 | 66 | 106 | 1.7 | 2.6 | 0.00 | 0.01 | 0.01 | 85 | 1018.4 |
| 20260906022930 | 66 | 119 | 2.6 | 2.6 | 0.00 | 0.01 | 0.01 | 85 | 1018.7 |
| 20260906022425 | 67 | 97 | 2.6 | 2.6 | 0.00 | 0.01 | 0.01 | 83 | 1018.6 |
| 20260906021920 | 67 | 100 | 2.6 | 3.5 | 0.00 | 0.01 | 0.01 | 83 | 1018.6 |
| 20260906021420 | 67 | 97 | 2.6 | 3.5 | 0.00 | 0.01 | 0.01 | 82 | 1018.4 |
| 20260906020914 | 68 | 99 | 3.5 | 3.5 | 0.00 | 0.01 | 0.01 | 81 | 1018.5 |
| 20260906020409 | 68 | 97 | 2.6 | 4.3 | 0.00 | 0.01 | 0.01 | 82 | 1018.6 |
| 20260906015903 | 67 | 104 | 2.6 | 3.5 | 0.00 | 0.01 | 0.01 | 83 | 1018.5 |
| 20260906015402 | 67 | 101 | 2.6 | 4.3 | 0.00 | 0.01 | 0.01 | 83 | 1018.5 |
| 20260906014857 | 68 | 96 | 3.5 | 4.3 | 0.00 | 0.01 | 0.01 | 83 | 1018.2 |
| 20260906014357 | 67 | 115 | 3.5 | 4.3 | 0.00 | 0.01 | 0.01 | 83 | 1018.4 |
| 20260906013853 | 67 | 95 | 2.6 | 4.3 | 0.00 | 0.01 | 0.01 | 84 | 1018.4 |
| 20260906013349 | 67 | 103 | 1.7 | 3.5 | 0.00 | 0.01 | 0.01 | 84 | 1018.2 |
| 20260906012844 | 67 | 97 | 2.6 | 4.3 | 0.00 | 0.01 | 0.01 | 84 | 1018.2 |
| 20260906012339 | 68 | 114 | 3.5 | 5.2 | 0.00 | 0.01 | 0.01 | 84 | 1018.1 |
| 20260906011838 | 68 | 98 | 2.6 | 4.3 | 0.00 | 0.01 | 0.01 | 84 | 1018.2 |
| 20260906011333 | 68 | 101 | 3.5 | 4.3 | 0.00 | 0.01 | 0.01 | 85 | 1018.1 |
| 20260906010829 | 68 | 93 | 5.2 | 6.1 | 0.00 | 0.01 | 0.01 | 85 | 1017.9 |
| 20260906010325 | 69 | 115 | 3.5 | 5.2 | 0.00 | 0.01 | 0.01 | 84 | 1018.1 |
| 20260906005821 | 69 | 97 | 3.5 | 3.5 | 0.00 | 0.01 | 0.01 | 85 | 1017.8 |
| 20260906005319 | 69 | 106 | 0.0 | 2.6 | 0.00 | 0.01 | 0.01 | 85 | 1017.9 |
| 20260906004818 | 69 | 82 | 2.6 | 3.5 | 0.00 | 0.01 | 0.01 | 85 | 1018.0 |
| 20260906004318 | 69 | 90 | 2.6 | 3.5 | 0.00 | 0.01 | 0.01 | 85 | 1018.0 |
| 20260906003814 | 69 | 95 | 3.5 | 4.3 | 0.00 | 0.01 | 0.01 | 85 | 1017.7 |
| 20260906003309 | 70 | 87 | 3.5 | 5.2 | 0.00 | 0.01 | 0.01 | 85 | 1018.0 |
| 20260906002805 | 70 | 116 | 2.6 | 5.2 | 0.00 | 0.01 | 0.01 | 84 | 1017.9 |
| 20260906002306 | 70 | 92 | 4.3 | 5.2 | 0.00 | 0.01 | 0.01 | 85 | 1017.8 |
| 20260906001800 | 71 | 98 | 4.3 | 5.2 | 0.00 | 0.01 | 0.01 | 84 | 1017.8 |
| 20260906001254 | 71 | 88 | 4.3 | 4.3 | 0.00 | 0.01 | 0.01 | 84 | 1017.8 |
| 20260906000750 | 71 | 94 | 4.3 | 5.2 | 0.00 | 0.01 | 0.01 | 83 | 1017.9 |
| 20260906000244 | 71 | 93 | 5.2 | 5.2 | 0.00 | 0.01 | 0.01 | 85 | 1017.7 |
| 20260905235739 | 72 | 83 | 0.9 | 2.6 | 0.00 | 0.01 | 0.01 | 85 | 1017.7 |
| 20260905235238 | 73 | 87 | 3.5 | 3.5 | 0.00 | 0.01 | 0.01 | 83 | 1017.8 |
| 20260905234734 | 74 | 24 | 1.7 | 2.6 | 0.00 | 0.01 | 0.01 | 81 | 1017.7 |
| 20260905234229 | 74 | 63 | 1.7 | 3.5 | 0.00 | 0.01 | 0.01 | 80 | 1017.8 |
| 20260905233725 | 75 | 57 | 0.0 | 2.6 | 0.00 | 0.01 | 0.01 | 80 | 1017.9 |
| 20260905233224 | 74 | 90 | 1.7 | 3.5 | 0.00 | 0.01 | 0.01 | 81 | 1017.6 |
| 20260905232719 | 74 | 16 | 1.7 | 2.6 | 0.00 | 0.01 | 0.01 | 81 | 1017.7 |
| 20260905232214 | 75 | 63 | 0.0 | 4.3 | 0.00 | 0.01 | 0.01 | 82 | 1017.9 |
| 20260905231710 | 74 | 85 | 3.5 | 4.3 | 0.00 | 0.01 | 0.01 | 82 | 1018.0 |
| 20260905231206 | 75 | 83 | 0.9 | 5.2 | 0.00 | 0.01 | 0.01 | 81 | 1018.0 |
| 20260905230702 | 75 | 68 | 1.7 | 4.3 | 0.00 | 0.01 | 0.01 | 80 | 1017.8 |
| 20260905230159 | 75 | 61 | 1.7 | 4.3 | 0.00 | 0.01 | 0.01 | 82 | 1018.0 |
| 20260905225659 | 74 | 68 | 1.7 | 4.3 | 0.00 | 0.01 | 0.01 | 84 | 1017.9 |
| 20260905225154 | 73 | 47 | 2.6 | 5.2 | 0.00 | 0.01 | 0.01 | 85 | 1017.6 |
| 20260905224654 | 73 | 48 | 1.7 | 5.2 | 0.00 | 0.01 | 0.01 | 84 | 1017.7 |
| 20260905224148 | 74 | 57 | 4.3 | 7.0 | 0.00 | 0.01 | 0.01 | 81 | 1017.7 |
| 20260905223645 | 75 | 90 | 7.8 | 9.6 | 0.00 | 0.01 | 0.01 | 80 | 1017.5 |
| 20260905223142 | 75 | 118 | 3.5 | 6.1 | 0.00 | 0.01 | 0.01 | 82 | 1017.7 |
| 20260905222637 | 75 | 98 | 3.5 | 4.3 | 0.00 | 0.01 | 0.01 | 85 | 1017.5 |
| 20260905222132 | 74 | 75 | 2.6 | 4.3 | 0.00 | 0.01 | 0.01 | 87 | 1017.5 |
| 20260905221627 | 73 | 84 | 2.6 | 4.3 | 0.00 | 0.01 | 0.01 | 88 | 1017.5 |
| 20260905221124 | 73 | 72 | 2.6 | 4.3 | 0.00 | 0.01 | 0.01 | 88 | 1017.8 |
| 20260905220619 | 73 | 81 | 3.5 | 3.5 | 0.00 | 0.01 | 0.01 | 88 | 1017.8 |
| 20260905220115 | 73 | 77 | 1.7 | 3.5 | 0.00 | 0.01 | 0.01 | 88 | 1017.8 |
| 20260905215614 | 73 | 95 | 3.5 | 7.0 | 0.00 | 0.01 | 0.01 | 88 | 1017.6 |
| 20260905215110 | 73 | 95 | 6.1 | 6.1 | 0.00 | 0.01 | 0.01 | 89 | 1017.8 |
| 20260905214606 | 73 | 88 | 4.3 | 4.3 | 0.00 | 0.01 | 0.01 | 90 | 1017.6 |
| 20260905214106 | 73 | 79 | 3.5 | 4.3 | 0.00 | 0.01 | 0.01 | 90 | 1017.7 |
| 20260905213601 | 73 | 83 | 2.6 | 2.6 | 0.00 | 0.01 | 0.01 | 91 | 1017.9 |
| 20260905213056 | 72 | 90 | 2.6 | 2.6 | 0.00 | 0.01 | 0.01 | 91 | 1017.8 |
| 20260905212551 | 72 | 78 | 1.7 | 3.5 | 0.00 | 0.01 | 0.01 | 90 | 1017.9 |
| 20260905212051 | 72 | 90 | 3.5 | 4.3 | 0.00 | 0.01 | 0.01 | 90 | 1017.7 |
| 20260905211546 | 72 | 68 | 2.6 | 4.3 | 0.00 | 0.01 | 0.01 | 90 | 1017.9 |
| 20260905211042 | 73 | 103 | 2.6 | 3.5 | 0.00 | 0.01 | 0.01 | 89 | 1017.8 |
| 20260905210537 | 73 | 68 | 2.6 | 3.5 | 0.00 | 0.01 | 0.01 | 89 | 1017.9 |
| 20260905210032 | 73 | 78 | 1.7 | 3.5 | 0.00 | 0.01 | 0.01 | 89 | 1017.9 |
| 20260905205531 | 72 | 70 | 2.6 | 5.2 | 0.00 | 0.01 | 0.01 | 89 | 1018.0 |
| 20260905205030 | 73 | 352 | 0.0 | 2.6 | 0.00 | 0.01 | 0.01 | 89 | 1017.7 |
| 20260905204526 | 72 | 99 | 2.6 | 3.5 | 0.00 | 0.01 | 0.01 | 88 | 1017.8 |
| 20260905204021 | 73 | 68 | 1.7 | 3.5 | 0.00 | 0.01 | 0.01 | 87 | 1017.9 |
| 20260905203521 | 73 | 63 | 0.9 | 3.5 | 0.00 | 0.01 | 0.01 | 88 | 1017.7 |
| 20260905203016 | 73 | 98 | 0.0 | 1.7 | 0.00 | 0.01 | 0.01 | 88 | 1017.6 |
| 20260905202511 | 73 | 60 | 0.9 | 3.5 | 0.00 | 0.01 | 0.01 | 88 | 1017.7 |
| 20260905202007 | 73 | 87 | 2.6 | 3.5 | 0.00 | 0.01 | 0.01 | 88 | 1017.6 |
| 20260905201502 | 73 | 71 | 3.5 | 3.5 | 0.00 | 0.01 | 0.01 | 89 | 1017.8 |
| 20260905201001 | 72 | 106 | 3.5 | 3.5 | 0.00 | 0.01 | 0.01 | 89 | 1017.7 |
| 20260905200457 | 72 | 92 | 6.1 | 6.1 | 0.00 | 0.01 | 0.01 | 89 | 1017.8 |
| 20260905195955 | 72 | 94 | 7.0 | 7.8 | 0.00 | 0.01 | 0.01 | 89 | 1017.9 |
| 20260905195451 | 73 | 84 | 5.2 | 6.1 | 0.00 | 0.01 | 0.01 | 90 | 1017.9 |
| 20260905194947 | 72 | 101 | 7.0 | 7.0 | 0.00 | 0.01 | 0.01 | 90 | 1017.8 |
| 20260905194446 | 72 | 110 | 4.3 | 10.4 | 0.00 | 0.01 | 0.01 | 89 | 1017.7 |
| 20260905193940 | 73 | 90 | 4.3 | 7.0 | 0.00 | 0.01 | 0.01 | 89 | 1017.8 |
| 20260905193435 | 73 | 81 | 3.5 | 8.7 | 0.00 | 0.01 | 0.01 | 88 | 1017.9 |
| 20260905192930 | 73 | 60 | 5.2 | 9.6 | 0.00 | 0.01 | 0.01 | 88 | 1017.7 |
| 20260905192425 | 73 | 46 | 4.3 | 7.8 | 0.00 | 0.01 | 0.01 | 88 | 1017.8 |
| 20260905191920 | 73 | 93 | 9.6 | 9.6 | 0.00 | 0.01 | 0.01 | 88 | 1017.6 |
| 20260905191419 | 74 | 101 | 6.1 | 8.7 | 0.00 | 0.01 | 0.01 | 87 | 1017.8 |
| 20260905190914 | 74 | 95 | 3.5 | 7.8 | 0.00 | 0.01 | 0.01 | 88 | 1017.8 |
| 20260905190412 | 74 | 87 | 6.1 | 7.8 | 0.00 | 0.01 | 0.01 | 87 | 1017.7 |
| 20260905185910 | 73 | 67 | 3.5 | 8.7 | 0.00 | 0.01 | 0.01 | 88 | 1017.9 |
| 20260905185406 | 74 | 96 | 2.6 | 7.0 | 0.00 | 0.01 | 0.01 | 88 | 1017.8 |
| 20260905184904 | 74 | 57 | 1.7 | 3.5 | 0.00 | 0.01 | 0.01 | 88 | 1017.8 |
| 20260905184359 | 73 | 82 | 6.1 | 7.8 | 0.00 | 0.01 | 0.01 | 87 | 1017.8 |
| 20260905183857 | 74 | 61 | 2.6 | 5.2 | 0.00 | 0.01 | 0.01 | 86 | 1017.6 |
| 20260905183352 | 74 | 64 | 4.3 | 7.0 | 0.00 | 0.01 | 0.01 | 85 | 1017.9 |
| 20260905182847 | 75 | 81 | 4.3 | 6.1 | 0.00 | 0.01 | 0.01 | 85 | 1017.9 |
| 20260905182342 | 74 | 86 | 2.6 | 4.3 | 0.00 | 0.01 | 0.01 | 86 | 1017.9 |
| 20260905181837 | 74 | 57 | 2.6 | 7.8 | 0.00 | 0.01 | 0.01 | 88 | 1017.7 |
| 20260905181337 | 73 | 90 | 3.5 | 7.8 | 0.00 | 0.01 | 0.01 | 89 | 1017.8 |
| 20260905180836 | 74 | 24 | 1.7 | 7.0 | 0.00 | 0.01 | 0.01 | 89 | 1017.8 |
| 20260905180331 | 74 | 90 | 2.6 | 7.0 | 0.00 | 0.01 | 0.01 | 90 | 1017.8 |
| 20260905175826 | 73 | 81 | 6.1 | 7.0 | 0.00 | 0.01 | 0.01 | 90 | 1017.8 |
| 20260905175326 | 73 | 21 | 2.6 | 8.7 | 0.00 | 0.01 | 0.01 | 90 | 1017.7 |
| 20260905174821 | 73 | 95 | 8.7 | 8.7 | 0.00 | 0.01 | 0.01 | 90 | 1017.8 |
| 20260905174317 | 73 | 85 | 5.2 | 9.6 | 0.00 | 0.01 | 0.01 | 90 | 1017.9 |
| 20260905173812 | 73 | 90 | 3.5 | 7.0 | 0.00 | 0.01 | 0.01 | 90 | 1017.9 |
| 20260905173308 | 73 | 32 | 2.6 | 6.1 | 0.00 | 0.01 | 0.01 | 91 | 1017.8 |
| 20260905172808 | 72 | 76 | 2.6 | 7.0 | 0.00 | 0.01 | 0.01 | 92 | 1017.8 |
| 20260905172306 | 72 | 52 | 3.5 | 7.8 | 0.00 | 0.01 | 0.01 | 92 | 1017.9 |
| 20260905171803 | 72 | 101 | 4.3 | 7.8 | 0.00 | 0.01 | 0.01 | 91 | 1017.9 |
| 20260905171259 | 72 | 82 | 4.3 | 6.1 | 0.00 | 0.01 | 0.01 | 92 | 1017.6 |
| 20260905170755 | 72 | 56 | 4.3 | 7.0 | 0.00 | 0.01 | 0.01 | 93 | 1017.7 |
| 20260905170251 | 72 | 85 | 2.6 | 6.1 | 0.00 | 0.01 | 0.01 | 93 | 1017.9 |
| 20260905165750 | 72 | 52 | 3.5 | 5.2 | 0.00 | 0.01 | 0.01 | 93 | 1017.9 |
| 20260905165246 | 72 | 37 | 1.7 | 4.3 | 0.00 | 0.01 | 0.01 | 93 | 1018.2 |
| 20260905164746 | 71 | 97 | 2.6 | 5.2 | 0.00 | 0.01 | 0.01 | 94 | 1018.2 |
| 20260905164240 | 71 | 87 | 2.6 | 4.3 | 0.00 | 0.01 | 0.01 | 94 | 1018.2 |
| 20260905163736 | 71 | 355 | 2.6 | 6.1 | 0.00 | 0.01 | 0.01 | 94 | 1017.9 |
| 20260905163232 | 71 | 78 | 3.5 | 6.1 | 0.00 | 0.01 | 0.01 | 94 | 1017.9 |
| 20260905162728 | 71 | 90 | 0.0 | 4.3 | 0.00 | 0.01 | 0.01 | 94 | 1018.1 |
| 20260905162227 | 71 | 27 | 2.6 | 6.1 | 0.00 | 0.01 | 0.01 | 94 | 1018.0 |
| 20260905161723 | 71 | 67 | 2.6 | 9.6 | 0.00 | 0.01 | 0.01 | 94 | 1017.9 |